Theta_e
305 306 306 307 310 310 314 313 312 311 311 311 311 311 313 307 305 305 303 301 306 314 318 321 319 320 321 321 320 319 319 319 320 321 321 323 324 325 323 324 321 320 322 326 326 324 319
303 304 304 304 307 308 311 313 314 312 311 311 311 311 312 310 308 305 304 303 301 310 316 319 321 319 321 320 320 319 320 320 321 321 321 322 324 323 324 324 323 324 323 324 323 321 316
303 304 303 305 303 305 307 308 311 314 311 310 310 310 310 311 310 306 305 304 302 304 314 317 320 319 319 319 318 319 320 320 320 321 320 320 321 324 323 321 324 325 324 324 325 321 316
302 302 303 304 303 303 305 306 309 311 311 310 310 310 310 311 310 307 306 309 307 301 313 316 318 319 319 318 319 319 319 320 320 321 321 320 321 320 321 322 320 322 321 322 320 318 317
302 302 303 303 302 302 303 305 306 308 311 310 309 309 310 311 310 306 307 310 307 302 312 315 318 318 318 318 319 319 319 319 320 320 321 320 320 320 319 318 317 318 321 320 321 318 316
301 301 303 302 302 301 302 302 305 307 312 311 309 309 309 311 309 306 306 308 307 308 311 315 316 317 316 318 318 319 319 319 319 320 322 322 320 317 315 317 322 318 319 319 320 319 315
300 303 302 302 302 301 301 302 305 306 306 310 309 309 309 311 309 305 308 309 309 310 312 312 313 314 314 316 317 319 319 319 319 319 321 319 320 322 319 317 318 317 319 320 319 318 316
300 301 300 302 301 302 300 301 304 305 306 310 309 308 310 310 308 304 307 310 308 308 313 312 312 314 314 315 318 318 319 318 319 319 318 319 322 318 317 318 320 320 322 320 319 318 316
301 301 300 301 301 301 301 300 304 306 305 310 309 308 310 310 308 306 308 309 308 309 310 312 312 314 314 315 316 317 318 318 318 319 319 320 319 318 317 318 320 320 320 322 321 319 317
300 301 301 302 301 301 301 300 304 305 305 310 308 308 310 309 306 308 309 308 309 309 308 310 311 313 313 314 315 316 318 318 318 320 319 319 317 318 317 318 318 319 318 321 322 321 322
303 302 302 302 301 302 301 300 302 305 304 310 308 308 309 308 307 308 308 309 309 308 306 307 310 310 312 313 313 315 318 317 317 318 319 320 318 319 319 318 317 318 318 320 321 321 322
303 303 302 301 301 302 300 300 303 304 304 310 307 307 309 308 307 308 308 308 309 307 304 309 310 311 312 312 313 315 317 316 316 315 315 317 318 317 317 316 316 316 318 318 317 321 326
303 304 302 302 300 303 300 300 303 303 302 308 306 307 309 307 307 307 308 308 310 310 301 311 311 312 311 312 312 312 315 316 316 317 317 316 316 317 317 318 316 319 320 322 324 324 321
302 302 301 303 304 301 301 300 303 302 302 307 307 307 308 306 306 306 309 308 310 299 299 309 311 311 311 310 311 311 313 315 314 313 315 314 315 316 317 318 318 318 320 318 322 321 318
302 301 303 302 302 301 300 300 303 303 308 307 306 308 306 306 305 308 308 309 308 301 306 310 310 312 310 310 310 311 311 312 312 313 316 318 318 314 315 317 317 317 320 317 314 300 313
302 304 302 301 300 300 300 303 304 309 306 306 308 307 306 306 306 309 308 308 304 304 306 308 310 310 311 311 311 310 311 311 311 311 311 313 316 315 315 316 316 318 317 321 319 317 316
301 302 302 301 301 300 303 304 307 307 307 307 307 306 306 305 306 308 308 307 302 305 306 305 304 307 309 311 311 310 311 309 310 310 312 312 314 313 316 318 318 318 319 319 318 314 317
301 302 302 301 301 304 305 308 306 307 307 307 305 304 306 306 305 304 305 302 304 304 303 303 303 305 306 308 311 311 310 309 310 311 314 313 313 313 315 314 313 317 318 319 320 319 314
302 301 302 303 304 307 306 305 307 306 306 305 305 305 307 305 303 304 302 302 303 303 302 302 303 304 305 306 306 307 311 309 309 312 313 314 315 315 317 315 313 316 317 318 318 312 317
302 304 307 305 305 305 305 307 306 306 305 305 304 304 302 304 301 302 302 301 301 303 302 302 302 303 303 305 304 305 307 306 308 310 312 314 312 315 316 317 316 318 318 317 318 318 318
303 305 303 304 305 305 306 307 306 305 304 304 303 299 301 301 297 301 301 301 301 299 302 303 302 303 302 299 303 304 305 305 305 308 311 314 315 313 313 313 316 317 318 319 319 318 318
303 303 305 306 306 306 307 306 304 304 304 303 300 300 299 297 300 301 302 299 301 300 302 302 301 302 302 300 302 302 304 304 306 309 309 311 314 314 314 313 314 315 317 318 318 318 319
302 303 303 305 307 306 305 304 303 304 303 301 300 301 302 299 294 298 296 299 300 301 301 302 301 301 301 302 302 302 302 304 305 307 310 307 309 313 314 312 314 316 315 317 316 317 318
303 302 302 303 304 305 305 304 304 303 302 301 300 301 298 298 298 298 299 299 300 300 300 302 302 301 302 302 302 303 303 303 304 304 306 305 306 305 307 314 317 314 312 314 317 317 317
303 303 302 303 304 305 304 304 303 302 301 300 300 300 299 297 295 298 300 300 299 301 299 301 303 303 304 306 301 302 304 306 304 304 305 304 306 305 307 314 313 311 309 314 316 317 315
303 303 303 303 305 304 304 303 303 301 299 300 299 300 299 297 295 298 296 299 294 289 290 299 304 304 304 303 304 297 298 297 299 307 305 305 306 307 309 316 318 313 308 314 313 318 315
303 302 302 303 303 301 300 300 299 299 300 298 299 299 298 297 297 299 296 297 299 296 292 299 301 303 304 301 304 301 305 303 301 308 313 310 309 309 310 315 310 307 307 314 318 316 313
303 302 301 300 300 300 299 299 299 298 298 298 298 298 297 297 297 299 299 299 300 300 297 299 300 301 302 303 301 298 301 304 305 306 309 312 314 313 313 314 315 304 312 315 312 306 308
302 301 301 301 300 300 299 299 299 299 298 296 298 299 298 298 295 296 298 300 301 302 301 301 300 300 302 302 302 304 307 306 306 308 307 311 312 311 313 312 304 308 305 309 307 307 308
Wind_Speed
40 38 38 39 37 42 42 49 50 47 47 45 45 42 39 35 32 31 32 33 35 31 28 26 27 27 26 23 12 5 8 24 26 21 19 16 14 8 5 8 6 2 3 14 17 20 16
43 41 42 46 38 38 44 39 52 50 49 48 46 45 42 38 33 31 30 31 34 34 30 29 26 28 29 19 22 8 6 19 28 23 20 20 12 10 6 5 6 6 7 8 7 12 8
43 41 42 40 44 40 44 44 45 52 52 50 49 48 45 40 35 33 30 29 31 35 32 30 28 29 29 20 18 18 5 4 17 23 21 22 8 10 5 5 8 5 4 9 13 5 4
41 42 43 43 45 45 42 45 52 42 62 54 49 46 45 41 38 34 30 28 27 32 32 29 26 31 13 29 14 22 24 14 10 18 21 19 14 3 3 3 3 5 2 3 5 10 9
40 41 42 45 47 46 45 43 52 54 58 54 50 47 45 41 39 35 31 27 25 29 30 27 28 27 9 20 25 21 23 20 13 13 18 17 14 4 5 3 2 3 4 5 6 14 5
44 45 41 45 48 50 47 48 47 50 49 54 49 47 48 45 40 36 31 26 24 26 28 27 24 14 14 27 37 23 19 14 20 20 18 9 7 3 1 4 8 5 4 4 7 5 8
48 47 46 46 49 50 51 48 47 53 51 59 50 49 50 48 42 38 34 31 26 17 35 22 22 5 9 18 23 30 25 20 19 17 8 7 5 16 17 6 5 6 5 9 4 10 5
52 55 56 47 48 51 51 49 47 48 50 61 53 51 51 48 43 40 41 35 40 17 24 13 6 20 13 25 18 32 28 19 13 11 8 4 16 15 6 3 4 4 2 4 4 4 7
59 57 55 57 59 60 57 53 45 49 52 61 55 53 53 50 43 43 48 36 32 28 10 14 11 24 19 23 10 31 33 19 11 12 17 15 4 12 10 5 10 9 8 3 5 2 3
63 60 58 57 56 61 62 55 47 45 47 65 59 56 54 50 47 48 45 36 27 27 4 7 9 16 16 16 5 23 35 22 5 17 15 13 8 15 8 15 13 15 8 6 6 2 5
64 54 49 50 49 57 58 56 51 48 54 64 60 58 56 57 50 53 52 41 36 15 5 8 13 10 17 15 15 12 35 18 9 6 8 8 12 15 17 16 12 8 8 13 7 4 3
50 44 48 54 52 59 57 53 49 48 44 64 61 59 58 54 42 45 49 44 30 4 7 8 16 14 15 11 7 17 22 19 7 5 6 7 2 17 11 13 17 9 5 4 3 3 12
23 37 45 52 54 62 58 54 49 46 48 62 62 62 61 56 47 52 53 42 6 8 1 9 13 18 19 9 6 7 11 15 10 12 16 8 16 3 9 11 8 10 9 4 7 7 17
18 34 39 49 60 57 56 54 47 42 41 66 64 61 55 48 50 53 53 15 9 3 6 2 13 19 15 17 11 5 12 14 18 4 4 13 8 16 7 11 6 19 16 5 7 6 9
15 33 36 46 50 54 53 52 48 45 57 66 63 56 46 42 53 58 42 15 5 7 7 11 15 19 11 10 9 8 11 19 17 16 12 7 10 1 10 8 9 8 16 12 3 3 2
22 29 37 47 48 51 50 50 51 61 69 69 59 46 40 45 56 55 19 8 2 6 7 13 6 5 12 20 11 17 16 15 11 24 11 5 2 3 7 12 14 15 7 11 4 5 6
31 27 34 40 45 49 53 57 59 69 70 66 46 24 41 45 50 37 16 7 4 5 9 5 5 5 6 11 10 19 10 4 23 9 26 3 5 1 3 11 20 6 13 9 6 3 5
29 28 33 40 50 49 54 71 68 69 68 57 21 5 46 51 11 7 8 11 8 6 5 4 5 6 6 7 11 15 11 10 21 23 18 15 5 10 14 6 2 14 12 19 10 19 3
24 25 29 58 56 49 70 63 71 71 67 51 15 22 41 46 5 9 6 6 4 4 4 3 4 3 3 7 5 6 8 2 15 15 11 14 8 9 3 3 4 7 15 19 19 2 18
27 31 54 66 60 61 64 67 69 68 55 46 19 7 8 19 9 17 16 8 5 7 4 6 6 6 5 3 4 6 5 3 3 17 24 15 6 10 13 5 5 13 18 18 23 13 22
27 36 46 50 59 60 64 67 67 57 46 45 11 3 7 8 4 12 11 12 8 5 4 7 4 4 7 4 3 5 4 1 3 7 3 6 12 14 14 8 3 11 19 25 24 34 17
29 32 38 46 52 60 63 63 61 49 44 24 10 10 11 7 20 16 8 8 14 6 7 5 7 6 5 7 9 7 7 6 5 5 8 6 7 8 16 13 12 12 16 16 26 29 25
24 30 37 39 47 57 60 57 57 46 33 12 16 27 22 9 4 7 5 9 13 8 2 14 12 7 8 14 10 9 8 5 3 6 5 4 2 7 19 11 14 14 28 24 24 27 30
23 28 33 38 39 41 49 51 49 39 21 19 34 25 11 3 7 5 7 4 11 15 7 6 21 8 7 15 13 13 18 17 15 11 13 5 6 2 8 9 17 23 15 29 31 31 29
26 27 33 37 42 46 46 53 43 31 22 23 30 23 9 4 5 6 12 6 10 14 7 10 13 18 11 8 3 3 3 3 10 17 18 17 8 4 5 12 4 7 9 26 22 32 29
25 25 31 39 44 47 44 42 41 34 26 33 23 18 12 8 6 9 7 9 5 4 3 3 8 12 13 3 3 6 5 7 5 5 21 18 18 8 9 12 9 13 7 26 11 20 32
27 27 34 55 55 49 41 38 36 32 26 24 23 18 17 10 7 15 6 9 9 6 3 5 6 6 14 4 4 3 4 5 4 5 7 7 12 19 16 12 8 5 7 33 15 14 15
29 28 34 47 48 43 42 39 35 32 25 25 22 17 14 9 12 9 10 7 12 13 5 10 5 3 4 8 4 4 5 7 4 5 6 9 6 10 9 7 14 11 24 22 11 3 5
34 38 40 41 36 32 32 30 23 19 14 9 18 15 13 10 8 11 11 10 12 17 15 20 6 6 10 5 5 3 4 3 5 4 4 5 8 4 11 7 2 21 9 4 1 2 3
Wind_Direction
262 262 261 258 251 239 238 239 236 234 232 227 222 220 219 215 214 217 216 212 208 205 205 206 199 193 186 190 200 187 213 200 201 201 193 185 173 163 178 169 172 213 247 214 232 287 266
258 259 257 256 257 251 233 233 235 234 230 227 222 217 217 215 215 214 213 213 206 202 201 202 200 194 190 204 198 175 69 186 197 193 190 185 194 185 167 195 175 205 227 209 232 249 267
258 254 255 254 253 252 243 247 240 231 229 225 219 217 213 216 216 211 208 207 206 200 196 199 199 196 197 194 209 208 184 84 191 193 187 188 171 186 173 149 221 221 159 264 266 253 255
256 254 250 249 247 247 244 242 235 244 222 219 217 214 211 210 211 207 203 196 199 196 193 194 196 195 207 199 185 196 217 205 169 191 195 189 192 185 191 220 135 152 172 204 245 200 226
255 253 250 248 246 245 246 239 239 238 212 215 212 211 210 201 206 199 195 192 189 187 189 188 190 193 209 199 196 194 202 201 167 181 190 201 206 197 178 152 87 221 199 183 280 208 167
255 248 246 246 245 242 242 238 234 230 216 215 211 207 205 194 198 194 187 180 171 173 179 183 191 182 220 204 200 189 190 188 193 187 189 193 167 139 106 164 203 195 190 194 203 234 216
260 262 260 249 241 240 238 236 230 229 240 212 208 202 203 190 192 187 175 159 152 170 179 185 196 170 185 188 192 194 194 185 190 186 183 183 180 206 200 192 205 169 182 213 236 237 192
260 257 258 242 243 237 234 230 229 227 234 204 204 199 199 186 189 181 178 174 171 194 172 191 195 199 167 180 173 192 184 176 184 195 139 173 216 205 182 189 223 240 229 244 284 274 180
264 255 245 250 245 233 232 227 223 224 221 199 197 192 195 185 184 178 183 182 167 156 148 191 178 185 167 180 175 192 192 183 181 192 192 205 226 168 177 178 216 236 221 227 237 280 206
258 254 252 246 234 228 226 219 218 220 229 192 191 187 189 179 176 180 182 172 161 155 101 180 186 200 170 167 198 197 189 176 193 207 191 229 184 178 176 213 197 226 169 215 262 256 233
261 245 232 226 221 216 212 213 214 215 216 184 185 183 185 179 173 180 177 161 160 160 142 183 173 186 198 180 146 186 188 185 171 167 180 190 184 188 201 210 191 220 175 205 219 227 316
242 221 215 212 218 208 206 206 207 213 218 180 180 180 182 176 177 173 168 162 160 110 228 173 155 167 159 186 188 150 183 198 181 180 203 232 235 193 205 197 195 153 88 57 78 154 251
209 207 213 213 210 201 203 201 203 204 212 176 178 178 180 173 169 170 163 164 162 193 308 168 172 167 171 168 170 159 168 186 189 191 215 194 228 268 197 200 187 181 157 205 214 211 240
208 205 204 184 188 193 194 197 197 199 214 173 175 174 172 173 174 166 161 157 195 188 195 224 150 159 175 148 197 139 166 196 213 179 168 212 224 199 165 219 200 200 193 178 201 198 248
172 189 170 173 176 183 190 193 195 193 182 171 168 166 164 168 170 163 153 182 189 193 161 148 132 158 174 181 159 163 183 206 210 200 200 200 225 250 197 176 175 183 212 205 81 10 67
163 163 175 179 182 185 182 185 186 173 167 165 157 153 157 167 167 161 158 145 208 171 124 139 127 164 176 176 164 189 186 201 212 208 204 208 297 236 181 180 227 216 167 200 214 192 231
174 174 173 180 184 185 183 179 154 158 160 156 144 141 158 163 165 163 184 151 174 120 121 111 139 111 166 176 179 183 197 237 200 172 200 188 200 292 123 204 194 184 205 213 188 175 222
163 171 173 183 186 183 167 154 160 157 152 147 131 112 159 159 153 173 175 143 134 145 110 95 92 95 138 169 190 194 201 197 199 185 195 199 231 228 219 175 212 242 216 201 207 215 223
167 200 209 184 170 147 162 157 153 156 160 144 106 114 157 159 145 165 135 142 123 126 128 133 116 137 168 148 149 178 193 294 180 180 186 181 220 232 208 266 206 229 223 207 223 123 223
121 127 120 149 161 147 150 152 155 153 152 143 121 131 115 160 138 157 158 167 108 111 105 105 115 91 97 135 45 157 168 267 177 199 210 194 199 226 227 225 147 209 201 222 211 225 235
102 119 126 133 143 148 151 155 152 150 149 137 115 94 139 160 176 156 146 156 127 125 101 126 47 147 140 113 118 182 183 256 271 197 153 222 231 215 237 260 313 230 219 215 209 224 218
118 123 130 140 146 152 151 152 152 145 153 147 115 138 101 88 125 136 146 179 165 145 135 181 134 161 155 163 183 176 159 189 193 191 176 190 256 219 238 238 228 237 241 234 222 228 231
125 129 136 140 147 153 153 159 160 153 157 129 119 133 130 130 91 132 181 152 185 124 64 159 141 148 198 217 206 230 230 248 224 174 162 130 306 251 257 224 235 237 230 220 231 235 219
132 139 141 146 150 155 156 164 166 166 162 142 134 137 106 123 120 144 133 102 157 183 132 158 165 159 224 239 245 262 262 256 242 226 196 195 205 125 282 245 220 241 222 217 217 223 224
139 141 150 154 158 159 153 162 161 150 151 155 140 151 113 103 100 112 143 115 143 168 171 159 183 195 175 126 79 305 239 242 236 230 212 205 174 180 246 260 291 264 221 197 198 231 224
139 137 146 156 152 160 168 172 172 158 148 160 146 147 115 108 213 139 125 152 148 150 36 177 158 184 184 155 163 201 214 203 250 243 206 195 208 197 227 244 235 247 178 192 183 252 229
137 140 129 145 158 149 137 133 129 135 152 157 117 131 128 104 140 155 165 175 161 154 131 133 160 156 193 172 216 198 236 187 207 207 165 180 209 208 210 239 278 238 186 142 164 241 200
142 134 143 129 131 126 128 131 134 137 130 153 122 128 122 101 136 159 147 142 165 173 147 160 108 205 160 193 189 214 224 219 180 226 177 175 216 202 207 188 247 174 148 164 204 89 106
131 135 131 134 132 141 146 145 153 161 154 137 128 135 126 107 128 172 176 172 190 191 187 167 189 173 169 187 211 214 222 220 193 240 182 203 195 210 206 201 274 177 339 191 20 204 232